SWR125 LSZH-LEIB

Flight info

Callsign SWR125
Flight time 1h 48m
Altitude 39000
Route VEBIT T50 ROTOS Z669 ULMES DCT VADAR DCT GEVEA DCT INCUS DCT BALSI DCT RETNO DCT TUPOX DCT MTG DCT DIVKO DCT VATIR DCT PIVUS DCT SULID DCT DIMIB DCT POS
Aircraft A346/H-SDE2E3FGHIJ3J4J5M1RWXY/LB1D1

Departure

Time 2026-05-06 10:54
Airport Zürich Airport (LSZH)

Arrival

Time 2026-05-06 12:43
Airport Ibiza Airport (LEIB)
Time Latitude Longitude Altitude Speed Heading
2026-05-06 10:04 47.44840 8.56119 1407 ft 0 kts 65°
2026-05-06 10:43 47.44844 8.56131 1411 ft 5 kts 65°
2026-05-06 10:43 47.44844 8.56132 1411 ft 0 kts 65°
2026-05-06 10:43 47.44844 8.56129 1412 ft 0 kts 65°
2026-05-06 10:44 47.44838 8.56111 1407 ft 1 kts 65°
2026-05-06 10:44 47.44835 8.56100 1407 ft 0 kts 58°
2026-05-06 10:44 47.44810 8.56072 1413 ft 10 kts 22°
2026-05-06 10:44 47.44758 8.56065 1413 ft 6 kts 343°
2026-05-06 10:45 47.44726 8.56084 1413 ft 3 kts 334°
2026-05-06 10:45 47.44727 8.56083 1413 ft 1 kts 334°
2026-05-06 10:45 47.44746 8.56070 1416 ft 5 kts 334°
2026-05-06 10:45 47.44754 8.56064 1416 ft 2 kts 334°
2026-05-06 10:46 47.44779 8.56046 1413 ft 5 kts 334°
2026-05-06 10:46 47.44789 8.56039 1416 ft 1 kts 334°
2026-05-06 10:46 47.44805 8.56028 1411 ft 4 kts 334°
2026-05-06 10:46 47.44834 8.56007 1410 ft 5 kts 334°
2026-05-06 10:47 47.44876 8.55978 1412 ft 8 kts 334°
2026-05-06 10:47 47.44923 8.55936 1416 ft 9 kts 313°
2026-05-06 10:47 47.44948 8.55853 1413 ft 10 kts 282°
2026-05-06 10:47 47.44945 8.55744 1413 ft 13 kts 229°
2026-05-06 10:48 47.44882 8.55724 1410 ft 5 kts 162°
2026-05-06 10:48 47.44834 8.55756 1412 ft 9 kts 155°
2026-05-06 10:48 47.44777 8.55796 1406 ft 0 kts 154°
2026-05-06 10:48 47.44768 8.55803 1407 ft 3 kts 154°
2026-05-06 10:49 47.44757 8.55810 1409 ft 0 kts 154°
2026-05-06 10:50 47.44756 8.55811 1409 ft 1 kts 154°
2026-05-06 10:50 47.44738 8.55824 1407 ft 5 kts 154°
2026-05-06 10:50 47.44694 8.55851 1410 ft 8 kts 165°
2026-05-06 10:50 47.44644 8.55843 1410 ft 5 kts 206°
2026-05-06 10:51 47.44637 8.55836 1406 ft 0 kts 224°
2026-05-06 10:52 47.44634 8.55832 1407 ft 1 kts 225°
2026-05-06 10:52 47.44623 8.55811 1411 ft 4 kts 234°
2026-05-06 10:52 47.44607 8.55772 1405 ft 5 kts 243°
2026-05-06 10:52 47.44599 8.55709 1407 ft 7 kts 269°
2026-05-06 10:53 47.44623 8.55634 1411 ft 10 kts 322°
2026-05-06 10:53 47.44629 8.55629 1406 ft 0 kts 326°
2026-05-06 10:53 47.44699 8.55571 1411 ft 42 kts 334°
2026-05-06 10:53 47.45219 8.55215 1411 ft 117 kts 335°
2026-05-06 10:54 47.45937 8.54722 1408 ft 166 kts 335°
2026-05-06 10:54 47.46659 8.54221 1524 ft 187 kts 335°
2026-05-06 10:54 47.47978 8.53378 2933 ft 158 kts 334°
2026-05-06 10:54 47.48985 8.52675 3534 ft 164 kts 332°
2026-05-06 10:55 47.50053 8.51872 3987 ft 179 kts 332°
2026-05-06 10:55 47.51199 8.51012 4475 ft 195 kts 332°
2026-05-06 10:55 47.52434 8.50008 4962 ft 210 kts 321°
2026-05-06 10:55 47.53412 8.48323 5479 ft 224 kts 296°
2026-05-06 10:56 47.53827 8.46086 6173 ft 230 kts 270°
2026-05-06 10:56 47.53536 8.43747 6953 ft 234 kts 245°
2026-05-06 10:56 47.52818 8.41520 7732 ft 246 kts 241°
2026-05-06 10:56 47.51833 8.39356 8361 ft 261 kts 221°
2026-05-06 10:57 47.50250 8.37951 9045 ft 272 kts 196°
2026-05-06 10:57 47.48388 8.37359 9983 ft 274 kts 190°
2026-05-06 10:57 47.46484 8.36835 10759 ft 285 kts 191°
2026-05-06 10:57 47.44463 8.36258 11304 ft 303 kts 192°
2026-05-06 10:58 47.42360 8.35636 11844 ft 321 kts 192°
2026-05-06 10:58 47.40168 8.34559 12351 ft 339 kts 209°
2026-05-06 10:58 47.38307 8.32345 12991 ft 349 kts 229°
2026-05-06 10:58 47.36996 8.29257 13974 ft 351 kts 242°
2026-05-06 10:59 47.35876 8.26041 14894 ft 354 kts 242°
2026-05-06 10:59 47.34740 8.22778 15729 ft 360 kts 242°
2026-05-06 10:59 47.33573 8.19460 16538 ft 366 kts 241°
2026-05-06 10:59 47.32380 8.16096 17375 ft 371 kts 241°
2026-05-06 11:00 47.31172 8.12698 18202 ft 376 kts 240°
2026-05-06 11:00 47.29944 8.09244 18913 ft 382 kts 240°
2026-05-06 11:00 47.28697 8.05739 19634 ft 386 kts 240°
2026-05-06 11:00 47.27444 8.02187 20374 ft 390 kts 241°
2026-05-06 11:01 47.26281 7.98498 21113 ft 395 kts 244°
2026-05-06 11:01 47.25216 7.94726 21863 ft 400 kts 245°
2026-05-06 11:01 47.24166 7.90967 22573 ft 404 kts 245°
2026-05-06 11:01 47.23440 7.88369 23044 ft 407 kts 244°
2026-05-06 11:02 47.23148 7.87325 23270 ft 408 kts 244°
2026-05-06 11:02 47.22121 7.83662 23868 ft 412 kts 244°
2026-05-06 11:02 47.21021 7.79746 24460 ft 416 kts 244°
2026-05-06 11:03 47.19839 7.75830 25070 ft 418 kts 240°
2026-05-06 11:03 47.18426 7.72053 25684 ft 420 kts 235°
2026-05-06 11:03 47.16793 7.68481 26281 ft 422 kts 230°
2026-05-06 11:03 47.14987 7.65058 26885 ft 424 kts 229°
2026-05-06 11:04 47.13130 7.61630 27485 ft 428 kts 228°
2026-05-06 11:04 47.11265 7.58200 28066 ft 431 kts 228°
2026-05-06 11:04 47.09381 7.54734 28654 ft 435 kts 228°
2026-05-06 11:04 47.07479 7.51229 29233 ft 438 kts 228°
2026-05-06 11:05 47.05558 7.47689 29790 ft 442 kts 228°
2026-05-06 11:05 47.03659 7.44194 30273 ft 445 kts 228°
2026-05-06 11:05 47.01713 7.40621 30833 ft 446 kts 228°
2026-05-06 11:05 46.99778 7.37083 31600 ft 442 kts 228°
2026-05-06 11:06 46.97831 7.33532 32411 ft 437 kts 229°
2026-05-06 11:06 46.95929 7.30066 33157 ft 433 kts 229°
2026-05-06 11:06 46.94034 7.26614 33843 ft 430 kts 229°
2026-05-06 11:06 46.92159 7.23194 34385 ft 429 kts 229°
2026-05-06 11:07 46.90290 7.19789 34917 ft 428 kts 229°
2026-05-06 11:07 46.88441 7.16423 35424 ft 427 kts 229°
2026-05-06 11:07 46.86575 7.13030 35915 ft 427 kts 229°
2026-05-06 11:07 46.84714 7.09647 36369 ft 426 kts 229°
2026-05-06 11:08 46.82855 7.06274 36801 ft 426 kts 230°
2026-05-06 11:08 46.80992 7.02896 37212 ft 426 kts 230°
2026-05-06 11:08 46.79115 6.99499 37540 ft 427 kts 230°
2026-05-06 11:08 46.78326 6.98071 37687 ft 428 kts 230°
2026-05-06 11:09 46.76503 6.94778 37971 ft 430 kts 230°
2026-05-06 11:09 46.74619 6.91377 38251 ft 432 kts 230°
2026-05-06 11:09 46.72711 6.87940 38523 ft 434 kts 230°
2026-05-06 11:09 46.70775 6.84541 38739 ft 435 kts 227°
2026-05-06 11:10 46.68725 6.81280 38891 ft 437 kts 225°
2026-05-06 11:10 46.64292 6.75241 38892 ft 438 kts 219°
2026-05-06 11:11 46.59420 6.69866 38893 ft 438 kts 214°
2026-05-06 11:11 46.54264 6.65157 38887 ft 438 kts 212°
2026-05-06 11:12 46.49062 6.60494 38892 ft 439 kts 212°
2026-05-06 11:12 46.43836 6.55819 38890 ft 439 kts 212°
2026-05-06 11:13 46.38608 6.51158 38898 ft 440 kts 212°
2026-05-06 11:13 46.33421 6.46545 38905 ft 440 kts 212°
2026-05-06 11:14 46.28145 6.41863 38918 ft 440 kts 212°
2026-05-06 11:14 46.22954 6.37268 38920 ft 441 kts 212°
2026-05-06 11:15 46.17720 6.32644 38922 ft 441 kts 212°
2026-05-06 11:15 46.12474 6.28021 38926 ft 441 kts 212°
2026-05-06 11:16 46.07230 6.23409 38947 ft 441 kts 212°
2026-05-06 11:16 46.01977 6.18798 38950 ft 441 kts 212°
2026-05-06 11:17 45.96722 6.14200 38952 ft 440 kts 212°
2026-05-06 11:17 45.91441 6.09790 38951 ft 441 kts 208°
2026-05-06 11:18 45.85834 6.06193 38953 ft 442 kts 202°
2026-05-06 11:18 45.79962 6.03546 38947 ft 443 kts 196°
2026-05-06 11:19 45.73935 6.01881 38974 ft 444 kts 191°
2026-05-06 11:19 45.67819 6.00528 38981 ft 443 kts 191°
2026-05-06 11:20 45.61920 5.99215 38978 ft 443 kts 191°
2026-05-06 11:20 45.55838 5.97870 38974 ft 443 kts 191°
2026-05-06 11:21 45.49748 5.96530 38969 ft 442 kts 191°
2026-05-06 11:21 45.44739 5.95143 38964 ft 440 kts 195°
2026-05-06 11:22 45.38736 5.93267 38955 ft 441 kts 195°
2026-05-06 11:22 45.32749 5.91408 38944 ft 440 kts 195°
2026-05-06 11:23 45.26756 5.89548 38937 ft 440 kts 195°
2026-05-06 11:23 45.20775 5.87693 38933 ft 439 kts 195°
2026-05-06 11:24 45.14838 5.85854 38934 ft 439 kts 195°
2026-05-06 11:24 45.08862 5.84005 38928 ft 439 kts 195°
2026-05-06 11:25 45.02876 5.82157 38930 ft 439 kts 195°
2026-05-06 11:25 44.96902 5.80317 38931 ft 439 kts 195°
2026-05-06 11:26 44.90940 5.78483 38931 ft 439 kts 195°
2026-05-06 11:26 44.84967 5.76651 39032 ft 438 kts 195°
2026-05-06 11:27 44.78975 5.74812 38952 ft 442 kts 194°
2026-05-06 11:27 44.72958 5.72980 38931 ft 442 kts 195°
2026-05-06 11:28 44.66946 5.71147 38924 ft 441 kts 195°
2026-05-06 11:28 44.60948 5.69316 38927 ft 441 kts 195°
2026-05-06 11:29 44.54958 5.67495 38925 ft 440 kts 195°
2026-05-06 11:29 44.48970 5.65678 38923 ft 440 kts 195°
2026-05-06 11:30 44.42988 5.63869 38923 ft 439 kts 195°
2026-05-06 11:30 44.37141 5.61701 38922 ft 437 kts 200°
2026-05-06 11:31 44.31444 5.58760 38924 ft 436 kts 203°
2026-05-06 11:31 44.25779 5.55665 38924 ft 436 kts 203°
2026-05-06 11:32 44.20127 5.52581 38929 ft 435 kts 203°
2026-05-06 11:32 44.14484 5.49505 38926 ft 435 kts 203°
2026-05-06 11:33 44.08875 5.46451 38927 ft 435 kts 203°
2026-05-06 11:33 44.03244 5.43390 38926 ft 434 kts 203°
2026-05-06 11:34 43.97589 5.40323 38929 ft 434 kts 203°
2026-05-06 11:34 43.91959 5.37279 38941 ft 434 kts 203°
2026-05-06 11:35 43.86317 5.34232 38940 ft 434 kts 204°
2026-05-06 11:35 43.80708 5.31207 38941 ft 434 kts 204°
2026-05-06 11:36 43.75056 5.28164 38946 ft 434 kts 204°
2026-05-06 11:36 43.69419 5.25136 38951 ft 434 kts 204°
2026-05-06 11:37 43.63778 5.22111 38946 ft 434 kts 204°
2026-05-06 11:37 43.58138 5.19091 38948 ft 435 kts 204°
2026-05-06 11:38 43.52538 5.16099 38943 ft 435 kts 204°
2026-05-06 11:38 43.46892 5.13089 38952 ft 435 kts 204°
2026-05-06 11:39 43.41303 5.09893 38946 ft 433 kts 207°
2026-05-06 11:39 43.35986 5.06006 38951 ft 431 kts 213°
2026-05-06 11:40 43.30978 5.01474 38947 ft 431 kts 216°
2026-05-06 11:40 43.26051 4.96843 38950 ft 430 kts 216°
2026-05-06 11:41 43.21107 4.92204 38951 ft 430 kts 216°
2026-05-06 11:41 43.16171 4.87574 38955 ft 429 kts 216°
2026-05-06 11:42 43.11227 4.82947 38957 ft 429 kts 216°
2026-05-06 11:42 43.06269 4.78373 38958 ft 429 kts 214°
2026-05-06 11:43 43.01118 4.74316 38962 ft 430 kts 211°
2026-05-06 11:43 42.95868 4.70329 38961 ft 429 kts 211°
2026-05-06 11:44 42.88032 4.64391 38966 ft 428 kts 211°
2026-05-06 11:44 42.82809 4.60447 38965 ft 428 kts 211°
2026-05-06 11:45 42.77586 4.56511 38970 ft 428 kts 211°
2026-05-06 11:45 42.72372 4.52590 38968 ft 428 kts 211°
2026-05-06 11:46 42.67157 4.48676 38968 ft 428 kts 211°
2026-05-06 11:46 42.61948 4.44774 38973 ft 427 kts 211°
2026-05-06 11:47 42.56758 4.40894 38975 ft 427 kts 211°
2026-05-06 11:47 42.51552 4.37008 38973 ft 427 kts 211°
2026-05-06 11:48 42.46341 4.33126 38978 ft 426 kts 211°
2026-05-06 11:48 42.41140 4.29260 38977 ft 426 kts 211°
2026-05-06 11:49 42.35936 4.25398 38975 ft 426 kts 211°
2026-05-06 11:49 42.30770 4.21572 38975 ft 426 kts 211°
2026-05-06 11:50 42.25564 4.17722 38976 ft 425 kts 211°
2026-05-06 11:50 42.20368 4.13888 38981 ft 425 kts 211°
2026-05-06 11:51 42.15174 4.10065 38977 ft 425 kts 211°
2026-05-06 11:51 42.09972 4.06248 38984 ft 425 kts 211°
2026-05-06 11:52 42.04767 4.02433 38966 ft 425 kts 211°
2026-05-06 11:52 41.99548 3.98614 38979 ft 425 kts 211°
2026-05-06 11:53 41.94340 3.94811 38975 ft 425 kts 211°
2026-05-06 11:53 41.89101 3.91116 38978 ft 425 kts 210°
2026-05-06 11:54 41.83833 3.87601 38978 ft 425 kts 209°
2026-05-06 11:54 41.78529 3.84060 38974 ft 425 kts 210°
2026-05-06 11:55 41.73236 3.80518 38976 ft 425 kts 210°
2026-05-06 11:55 41.67943 3.76978 38976 ft 425 kts 210°
2026-05-06 11:56 41.62647 3.73441 38978 ft 425 kts 210°
2026-05-06 11:56 41.57352 3.69910 38976 ft 425 kts 210°
2026-05-06 11:57 41.52057 3.66386 38977 ft 425 kts 210°
2026-05-06 11:57 41.46800 3.62893 38975 ft 425 kts 210°
2026-05-06 11:58 41.41504 3.59380 38975 ft 424 kts 210°
2026-05-06 11:58 41.36207 3.55872 38972 ft 424 kts 210°
2026-05-06 11:59 41.30922 3.52378 38976 ft 424 kts 210°
2026-05-06 11:59 41.25636 3.48892 38977 ft 424 kts 209°
2026-05-06 12:00 41.20234 3.45766 38978 ft 427 kts 204°
2026-05-06 12:00 41.14562 3.43335 38971 ft 430 kts 199°
2026-05-06 12:01 41.08701 3.41616 38977 ft 431 kts 196°
2026-05-06 12:01 41.02826 3.40057 38981 ft 430 kts 196°
2026-05-06 12:02 40.96958 3.38502 38975 ft 430 kts 196°
2026-05-06 12:02 40.91082 3.36953 38977 ft 430 kts 196°
2026-05-06 12:03 40.85207 3.35409 38975 ft 430 kts 196°
2026-05-06 12:03 40.79326 3.33867 38971 ft 430 kts 196°
2026-05-06 12:04 40.73454 3.32330 38973 ft 430 kts 196°
2026-05-06 12:04 40.67577 3.30794 38973 ft 430 kts 196°
2026-05-06 12:05 40.61701 3.29262 38976 ft 430 kts 196°
2026-05-06 12:05 40.55836 3.27735 38975 ft 430 kts 196°
2026-05-06 12:06 40.49952 3.26205 38975 ft 430 kts 196°
2026-05-06 12:06 40.44117 3.24690 38975 ft 430 kts 196°
2026-05-06 12:07 40.38231 3.23164 38970 ft 430 kts 196°
2026-05-06 12:07 40.32352 3.21644 38969 ft 430 kts 196°
2026-05-06 12:08 40.27518 3.20403 38967 ft 422 kts 196°
2026-05-06 12:08 40.21776 3.18925 38973 ft 420 kts 196°
2026-05-06 12:09 40.16041 3.17448 38969 ft 420 kts 196°
2026-05-06 12:09 40.10270 3.15965 38961 ft 420 kts 196°
2026-05-06 12:10 40.07376 3.15222 38761 ft 420 kts 196°
2026-05-06 12:10 40.04514 3.14490 38500 ft 419 kts 196°
2026-05-06 12:10 40.01642 3.13755 38211 ft 419 kts 197°
2026-05-06 12:10 39.98798 3.12922 37934 ft 417 kts 199°
2026-05-06 12:11 39.96043 3.11926 37650 ft 415 kts 202°
2026-05-06 12:11 39.93308 3.10742 37362 ft 414 kts 205°
2026-05-06 12:11 39.90631 3.09384 37116 ft 412 kts 207°
2026-05-06 12:11 39.87992 3.07842 36840 ft 411 kts 210°
2026-05-06 12:12 39.85453 3.06155 36571 ft 409 kts 212°
2026-05-06 12:12 39.82963 3.04344 36309 ft 409 kts 213°
2026-05-06 12:12 39.80465 3.02530 36037 ft 409 kts 213°
2026-05-06 12:12 39.77956 3.00711 35701 ft 410 kts 213°
2026-05-06 12:13 39.75444 2.98890 35281 ft 410 kts 213°
2026-05-06 12:13 39.72985 2.97107 34787 ft 411 kts 213°
2026-05-06 12:13 39.70481 2.95293 34254 ft 411 kts 213°
2026-05-06 12:13 39.67977 2.93478 33647 ft 412 kts 213°
2026-05-06 12:14 39.65470 2.91663 32994 ft 413 kts 213°
2026-05-06 12:14 39.62959 2.89846 32347 ft 413 kts 213°
2026-05-06 12:14 39.60446 2.88029 31711 ft 414 kts 213°
2026-05-06 12:14 39.57935 2.86215 31068 ft 414 kts 213°
2026-05-06 12:15 39.55409 2.84392 30409 ft 415 kts 213°
2026-05-06 12:15 39.52881 2.82569 29819 ft 414 kts 213°
2026-05-06 12:15 39.50378 2.80768 29386 ft 409 kts 212°
2026-05-06 12:15 39.47911 2.78994 28948 ft 403 kts 213°
2026-05-06 12:16 39.45552 2.77095 28530 ft 395 kts 218°
2026-05-06 12:16 39.43407 2.74908 28126 ft 389 kts 224°
2026-05-06 12:16 39.41487 2.72481 27702 ft 383 kts 229°
2026-05-06 12:16 39.39766 2.69872 27273 ft 379 kts 232°
2026-05-06 12:17 39.38104 2.67244 26849 ft 376 kts 232°
2026-05-06 12:17 39.36456 2.64626 26410 ft 374 kts 232°
2026-05-06 12:17 39.34815 2.62018 25985 ft 372 kts 232°
2026-05-06 12:17 39.33185 2.59432 25563 ft 370 kts 232°
2026-05-06 12:18 39.31539 2.56823 25126 ft 382 kts 232°
2026-05-06 12:18 39.29843 2.54135 24666 ft 385 kts 232°
2026-05-06 12:18 39.28170 2.51489 24240 ft 384 kts 232°
2026-05-06 12:18 39.26480 2.48821 23795 ft 383 kts 232°
2026-05-06 12:19 39.24794 2.46159 23312 ft 381 kts 232°
2026-05-06 12:19 39.23116 2.43515 22826 ft 379 kts 232°
2026-05-06 12:19 39.21446 2.40884 22346 ft 377 kts 232°
2026-05-06 12:19 39.19786 2.38271 21879 ft 375 kts 232°
2026-05-06 12:20 39.18133 2.35671 21433 ft 374 kts 232°
2026-05-06 12:20 39.16485 2.33081 20988 ft 372 kts 232°
2026-05-06 12:20 39.14872 2.30548 20542 ft 370 kts 231°
2026-05-06 12:20 39.13239 2.27985 20099 ft 369 kts 231°
2026-05-06 12:21 39.11613 2.25436 19649 ft 367 kts 231°
2026-05-06 12:21 39.09991 2.22895 19217 ft 366 kts 231°
2026-05-06 12:21 39.08375 2.20365 18772 ft 364 kts 231°
2026-05-06 12:21 39.06765 2.17846 18345 ft 363 kts 231°
2026-05-06 12:22 39.05160 2.15338 17835 ft 362 kts 231°
2026-05-06 12:22 39.03566 2.12848 17350 ft 359 kts 231°
2026-05-06 12:22 39.01978 2.10370 16914 ft 357 kts 231°
2026-05-06 12:22 39.00400 2.07910 16485 ft 356 kts 231°
2026-05-06 12:23 38.98812 2.05435 16052 ft 354 kts 231°
2026-05-06 12:23 38.97220 2.02956 15634 ft 368 kts 231°
2026-05-06 12:23 38.95574 2.00394 15165 ft 373 kts 231°
2026-05-06 12:23 38.93894 1.97784 14733 ft 372 kts 231°
2026-05-06 12:24 38.92258 1.95214 14284 ft 370 kts 234°
2026-05-06 12:24 38.90913 1.92409 13853 ft 367 kts 244°
2026-05-06 12:24 38.89998 1.89400 13370 ft 365 kts 253°
2026-05-06 12:24 38.89322 1.86245 12901 ft 364 kts 255°
2026-05-06 12:25 38.88688 1.83105 12426 ft 363 kts 255°
2026-05-06 12:25 38.88054 1.79952 11953 ft 362 kts 255°
2026-05-06 12:25 38.87419 1.76820 11487 ft 361 kts 255°
2026-05-06 12:25 38.86784 1.73712 11023 ft 360 kts 255°
2026-05-06 12:26 38.86145 1.70599 10575 ft 358 kts 255°
2026-05-06 12:26 38.85508 1.67514 10379 ft 357 kts 255°
2026-05-06 12:26 38.84881 1.64486 10268 ft 343 kts 255°
2026-05-06 12:26 38.84281 1.61588 10163 ft 328 kts 255°
2026-05-06 12:27 38.83708 1.58842 10055 ft 315 kts 255°
2026-05-06 12:27 38.83128 1.56188 9946 ft 302 kts 255°
2026-05-06 12:27 38.82553 1.53607 9609 ft 298 kts 254°
2026-05-06 12:27 38.81989 1.51073 9300 ft 293 kts 254°
2026-05-06 12:28 38.81434 1.48576 9009 ft 287 kts 254°
2026-05-06 12:28 38.80889 1.46121 8680 ft 283 kts 254°
2026-05-06 12:28 38.80306 1.43732 8375 ft 279 kts 250°
2026-05-06 12:28 38.79543 1.41458 8090 ft 275 kts 244°
2026-05-06 12:29 38.78664 1.39285 7743 ft 274 kts 242°
2026-05-06 12:29 38.77765 1.37123 7396 ft 274 kts 242°
2026-05-06 12:29 38.76868 1.34967 7058 ft 274 kts 242°
2026-05-06 12:29 38.75972 1.32812 6791 ft 273 kts 242°
2026-05-06 12:30 38.75073 1.30645 6734 ft 274 kts 242°
2026-05-06 12:30 38.74192 1.28522 6603 ft 265 kts 242°
2026-05-06 12:30 38.73341 1.26471 6432 ft 258 kts 241°
2026-05-06 12:30 38.72501 1.24454 6218 ft 253 kts 241°
2026-05-06 12:31 38.71679 1.22487 5973 ft 249 kts 241°
2026-05-06 12:31 38.70866 1.20540 5711 ft 245 kts 241°
2026-05-06 12:31 38.70067 1.18629 5479 ft 241 kts 241°
2026-05-06 12:31 38.69276 1.16737 5209 ft 240 kts 241°
2026-05-06 12:32 38.68498 1.14874 4915 ft 240 kts 241°
2026-05-06 12:32 38.67710 1.12989 4633 ft 240 kts 241°
2026-05-06 12:32 38.66919 1.11099 4357 ft 239 kts 241°
2026-05-06 12:32 38.66140 1.09238 4160 ft 235 kts 241°
2026-05-06 12:33 38.65374 1.07408 3922 ft 231 kts 241°
2026-05-06 12:33 38.64680 1.05558 3680 ft 230 kts 250°
2026-05-06 12:33 38.64278 1.03582 3537 ft 230 kts 259°
2026-05-06 12:33 38.64015 1.01550 3536 ft 231 kts 261°
2026-05-06 12:34 38.63776 0.99493 3538 ft 231 kts 264°
2026-05-06 12:34 38.63985 0.97481 3490 ft 229 kts 301°
2026-05-06 12:34 38.65099 0.96088 3546 ft 226 kts 333°
2026-05-06 12:34 38.66495 0.95172 3752 ft 226 kts 336°
2026-05-06 12:35 38.67944 0.94525 3974 ft 213 kts 356°
2026-05-06 12:35 38.69355 0.94917 3549 ft 212 kts 33°
2026-05-06 12:35 38.70335 0.96294 3346 ft 210 kts 59°
2026-05-06 12:35 38.71077 0.97922 3383 ft 213 kts 62°
2026-05-06 12:36 38.71782 0.99571 3410 ft 213 kts 62°
2026-05-06 12:36 38.72442 1.01151 3429 ft 214 kts 63°
2026-05-06 12:36 38.73138 1.02840 3479 ft 214 kts 63°
2026-05-06 12:36 38.73830 1.04529 3523 ft 214 kts 63°
2026-05-06 12:37 38.74522 1.06225 3521 ft 214 kts 63°
2026-05-06 12:37 38.75213 1.07922 3508 ft 215 kts 63°
2026-05-06 12:37 38.75906 1.09620 3501 ft 215 kts 63°
2026-05-06 12:37 38.76601 1.11318 3531 ft 215 kts 63°
2026-05-06 12:38 38.77295 1.13016 3533 ft 215 kts 63°
2026-05-06 12:38 38.77991 1.14716 3322 ft 213 kts 63°
2026-05-06 12:38 38.78670 1.16372 3152 ft 204 kts 63°
2026-05-06 12:38 38.79311 1.17937 3047 ft 192 kts 63°
2026-05-06 12:39 38.79922 1.19427 2846 ft 184 kts 63°
2026-05-06 12:39 38.80502 1.20842 2646 ft 175 kts 62°
2026-05-06 12:39 38.81058 1.22199 2389 ft 168 kts 61°
2026-05-06 12:39 38.81582 1.23469 2175 ft 157 kts 62°
2026-05-06 12:40 38.82074 1.24668 1936 ft 146 kts 60°
2026-05-06 12:40 38.82538 1.25793 1732 ft 140 kts 61°
2026-05-06 12:40 38.82993 1.26904 1558 ft 140 kts 60°
2026-05-06 12:40 38.83446 1.28005 1381 ft 140 kts 60°
2026-05-06 12:41 38.83903 1.29110 1214 ft 139 kts 61°
2026-05-06 12:41 38.84349 1.30194 1015 ft 140 kts 61°
2026-05-06 12:41 38.84803 1.31308 842 ft 140 kts 62°
2026-05-06 12:41 38.85278 1.32396 686 ft 138 kts 63°
2026-05-06 12:42 38.85720 1.33504 482 ft 140 kts 64°
2026-05-06 12:42 38.86182 1.34590 310 ft 137 kts 65°
2026-05-06 12:42 38.86620 1.35681 106 ft 138 kts 64°
2026-05-06 12:42 38.87048 1.36746 37 ft 110 kts 62°
2026-05-06 12:43 38.87329 1.37374 40 ft 46 kts 46°
2026-05-06 12:43 38.87492 1.37528 47 ft 12 kts 32°
2026-05-06 12:43 38.87512 1.37544 49 ft 1 kts 32°
2026-05-06 12:43 38.87517 1.37548 49 ft 2 kts 32°
2026-05-06 12:44 38.87533 1.37556 49 ft 3 kts
2026-05-06 12:44 38.87559 1.37546 49 ft 4 kts 312°
2026-05-06 12:44 38.87551 1.37500 53 ft 9 kts 237°
2026-05-06 12:44 38.87505 1.37390 49 ft 18 kts 242°
2026-05-06 12:45 38.87441 1.37237 49 ft 20 kts 242°
2026-05-06 12:45 38.87379 1.37090 48 ft 16 kts 242°
2026-05-06 12:45 38.87303 1.36899 46 ft 5 kts 253°
2026-05-06 12:46 38.87315 1.36852 45 ft 7 kts 315°
2026-05-06 12:46 38.87360 1.36815 49 ft 9 kts 331°
2026-05-06 12:46 38.87393 1.36791 49 ft 0 kts 331°
2026-05-06 12:46 38.87410 1.36773 51 ft 2 kts 304°
2026-05-06 12:47 38.87421 1.36720 52 ft 0 kts 280°
2026-05-06 12:47 38.87428 1.36693 48 ft 0 kts 304°
2026-05-06 12:47 38.87437 1.36683 51 ft 1 kts 327°
2026-05-06 12:47 38.87446 1.36680 51 ft 1 kts 353°
2026-05-06 12:48 38.87448 1.36680 52 ft 0 kts 357°